Theta_e
322 322 322 322 321 321 321 322 322 322 321 321 321 321 321 321 321 321 321 322 322 322 322 323 323 324 322 324 330 342 354 349 332 332 335 341 338 338 333 334 333 328 329 332 333 334 331
321 321 321 321 321 321 320 321 321 321 321 320 320 320 320 320 320 320 320 321 321 321 321 323 324 324 323 319 338 343 337 333 335 336 339 343 339 342 337 334 329 334 332 330 332 331 333
320 320 320 320 320 320 320 320 320 320 319 319 319 319 318 318 318 318 319 319 319 320 321 323 325 324 318 320 335 346 342 337 339 340 342 345 346 339 338 329 330 333 329 329 329 330 333
320 319 319 319 319 319 319 319 319 318 318 317 317 317 318 317 317 317 317 318 318 320 322 326 327 324 318 334 337 340 343 339 341 344 347 349 346 340 337 337 334 328 327 319 328 331 328
319 319 319 319 319 319 318 318 317 317 317 317 316 316 317 316 317 316 316 317 318 322 325 328 322 320 319 332 328 338 343 335 338 343 349 347 344 336 335 328 324 324 314 317 323 330 328
319 318 318 318 318 318 318 317 317 316 316 316 316 316 315 316 316 316 315 317 325 322 325 327 323 319 325 324 330 339 343 339 339 340 339 338 335 330 329 325 314 315 315 317 319 326 326
317 317 317 317 317 317 317 316 316 316 316 316 315 315 315 315 315 315 315 320 320 317 319 317 320 319 325 329 334 337 340 339 341 338 330 333 327 322 322 325 325 321 318 319 324 326 326
317 316 316 316 316 317 316 316 315 315 315 315 315 314 314 315 314 314 314 315 319 321 313 322 322 322 326 331 326 335 341 334 335 327 330 328 323 327 328 327 323 320 319 320 323 325 325
318 317 315 316 316 315 315 314 314 314 314 314 314 314 314 313 313 315 316 318 324 323 313 315 320 321 322 327 324 329 338 335 329 325 326 324 326 328 325 325 320 320 320 320 319 322 324
318 318 317 315 315 314 314 313 313 314 314 313 313 313 313 311 312 320 318 323 323 324 308 310 314 319 323 324 319 331 336 335 328 324 326 326 329 326 322 324 325 317 324 321 319 318 312
318 318 318 317 314 314 313 313 313 313 313 313 313 314 313 311 312 314 322 324 324 322 297 315 316 325 323 319 321 324 335 332 325 325 326 322 325 325 323 325 326 320 325 323 321 318 317
317 317 317 317 316 313 313 313 313 313 313 312 313 313 312 317 317 320 322 323 321 306 299 311 315 314 315 318 320 326 326 331 331 325 325 325 331 328 327 328 329 327 322 322 321 317 310
317 317 317 317 316 315 313 312 313 312 312 313 312 311 310 315 314 323 323 317 304 300 313 310 311 313 313 314 316 319 320 319 319 315 316 322 324 328 328 324 328 325 319 311 309 309 308
317 317 317 316 316 315 314 312 312 312 312 312 310 310 314 315 319 318 318 310 300 307 308 316 314 313 309 314 315 317 319 316 322 321 316 314 313 323 326 322 321 323 320 313 307 306 305
316 316 316 316 315 315 314 313 312 312 312 311 309 319 321 322 321 321 312 302 303 309 314 311 313 309 309 312 315 315 317 317 320 322 315 314 314 325 327 325 324 321 318 324 314 311 307
316 316 316 315 315 315 315 314 313 313 312 310 312 317 318 325 323 317 308 301 307 313 314 313 307 311 307 310 311 314 315 320 320 324 324 320 314 323 323 324 325 322 324 315 317 307 302
316 316 315 315 315 315 315 315 314 313 311 309 315 316 321 326 320 311 303 305 309 313 315 310 309 309 311 311 312 313 314 320 323 324 325 322 318 316 320 320 318 318 315 315 316 314 308
314 314 314 314 315 314 314 314 313 312 309 311 316 310 325 325 309 309 305 308 307 312 315 313 312 312 310 312 312 313 314 319 325 325 319 323 319 314 315 323 322 319 315 314 309 310 313
314 314 314 314 314 314 314 313 313 311 310 310 312 316 325 322 305 306 309 309 311 310 311 311 309 310 313 311 308 313 316 322 325 323 320 323 318 311 313 317 318 314 316 316 316 314 311
314 314 313 313 313 313 313 313 312 312 311 310 314 309 316 317 314 309 308 308 308 313 311 312 310 311 310 310 313 312 314 317 320 322 327 321 314 312 308 314 317 314 315 315 313 309 309
314 314 314 313 312 314 314 313 312 312 311 311 316 312 317 311 310 309 310 311 309 308 312 312 309 309 309 307 309 310 314 316 317 319 319 317 310 313 314 316 316 313 314 314 312 312 308
314 314 314 314 313 314 314 313 313 311 309 315 310 309 313 311 316 313 307 309 308 310 311 309 309 310 311 308 310 310 313 314 314 317 314 315 311 311 309 313 313 311 313 314 314 314 313
313 313 313 314 314 314 314 314 313 311 310 313 314 313 311 307 309 309 310 311 310 312 314 315 314 313 310 312 316 315 317 317 317 316 314 313 311 310 305 310 311 307 312 312 313 315 314
313 313 313 313 314 313 313 313 313 312 310 312 315 312 308 305 308 309 311 312 311 313 312 315 316 314 317 322 320 318 316 316 316 317 318 316 316 314 308 311 301 311 317 316 314 315 316
313 313 312 312 312 312 313 313 313 313 311 312 316 313 308 305 309 309 309 311 314 315 314 314 317 318 321 317 312 309 309 310 312 315 316 317 315 311 306 306 310 312 315 314 314 313 318
313 313 312 312 312 312 312 313 313 313 311 312 314 318 311 306 308 310 308 309 307 310 311 315 320 322 319 314 310 306 301 305 304 308 314 314 316 310 309 304 301 313 316 320 319 309 321
313 313 312 312 312 312 312 312 312 313 311 312 314 320 313 306 309 311 308 307 310 309 309 314 316 315 318 310 306 305 303 309 303 305 308 308 311 307 307 305 308 316 319 320 307 312 323
313 312 312 312 312 312 312 312 313 313 313 312 313 319 313 307 309 311 313 310 310 310 309 313 314 314 313 308 307 308 307 309 309 312 311 309 309 306 310 306 302 322 320 313 324 325 324
312 312 312 312 312 312 312 313 313 313 313 312 311 318 319 311 310 314 315 316 315 314 310 313 312 316 317 313 313 313 310 312 312 306 317 309 313 311 311 309 321 322 322 325 325 324 324
Wind_Speed
16 16 16 17 16 16 17 17 16 17 17 18 19 19 19 19 19 20 20 19 18 18 17 17 15 14 10 9 15 9 10 8 9 12 15 15 12 16 17 11 13 12 24 15 14 3 11
16 16 16 17 17 18 18 18 17 17 17 18 19 19 19 20 20 20 20 19 19 18 17 16 13 12 7 16 3 12 13 13 14 15 19 11 10 16 14 3 6 17 11 6 14 11 3
15 15 16 16 17 17 18 19 19 19 19 19 20 20 20 21 21 21 21 21 21 20 18 14 10 7 12 20 6 12 13 14 15 17 18 9 11 15 16 17 24 14 15 20 12 12 15
15 15 15 16 16 17 18 18 19 19 20 20 21 21 21 22 22 23 23 23 23 21 16 13 7 8 10 17 11 11 13 15 15 14 15 8 6 14 15 4 18 6 11 11 16 17 17
16 16 16 17 16 17 18 18 19 19 20 21 21 22 22 22 22 23 24 26 23 17 11 6 7 8 17 4 12 14 14 16 13 14 11 7 10 14 19 15 6 6 3 21 18 26 10
16 17 17 18 18 18 18 19 19 20 20 21 22 23 24 23 22 23 27 28 7 10 8 9 11 10 21 16 13 15 15 18 14 15 12 12 13 13 14 13 4 6 5 12 14 26 23
17 18 18 19 19 19 20 19 20 20 21 21 22 23 24 23 23 21 18 6 6 7 11 15 14 14 12 21 14 15 15 18 15 11 14 15 12 14 13 11 22 5 17 27 23 17 29
17 17 18 19 19 18 20 19 20 20 21 21 22 23 25 25 25 20 10 8 11 11 13 22 22 21 20 8 10 15 17 14 15 15 16 12 12 12 6 2 23 31 25 33 19 5 6
14 15 18 17 18 19 20 20 20 21 21 22 22 23 24 27 29 11 13 17 14 12 10 19 22 22 20 10 16 17 19 19 15 17 17 16 6 16 13 7 14 23 16 12 4 5 11
15 15 14 19 19 20 20 21 21 22 22 22 23 23 22 30 7 10 12 15 7 10 9 19 26 24 24 17 18 17 21 19 19 19 19 14 13 16 11 24 21 3 9 5 7 14 8
16 16 16 16 20 20 21 21 22 22 23 23 23 20 21 12 14 9 9 5 7 6 8 5 22 11 24 25 18 20 20 21 22 19 9 27 13 14 17 19 17 3 20 25 14 12 10
16 16 16 16 17 21 22 22 23 23 24 25 23 20 20 9 9 17 15 14 9 8 15 8 10 11 21 25 23 18 19 20 20 22 18 21 6 16 15 15 21 10 9 13 9 11 12
16 17 17 17 18 18 22 22 23 25 25 24 25 22 13 10 10 13 9 8 7 11 13 10 15 15 18 22 25 24 23 22 21 18 18 20 12 16 7 14 19 10 14 9 11 11 8
17 17 17 18 18 19 19 23 24 24 25 26 28 30 10 15 12 14 10 9 12 13 20 14 6 19 21 22 22 24 22 21 24 23 15 17 12 18 13 16 15 14 16 14 12 5 9
17 17 18 19 20 19 19 21 22 24 25 27 33 8 6 9 17 12 9 13 13 17 12 10 8 13 17 20 16 24 22 22 24 25 22 18 17 20 25 17 18 15 17 21 22 13 3
17 17 18 18 19 20 21 22 22 25 27 25 8 10 14 15 16 9 10 18 20 25 14 8 11 7 14 20 23 24 23 22 24 26 24 24 6 9 8 17 19 17 15 13 12 10 7
18 18 19 19 20 21 21 23 23 26 31 29 6 7 11 13 12 9 13 19 21 26 18 5 14 18 17 15 21 22 23 22 24 24 26 24 10 4 6 34 18 13 14 12 15 17 12
18 19 19 20 20 21 22 22 23 24 29 12 7 7 11 11 10 10 14 22 22 22 16 11 13 15 14 17 13 20 20 23 20 23 21 21 15 12 15 22 16 17 13 12 12 13 15
18 18 18 20 21 21 22 22 22 20 16 10 7 9 9 10 10 13 19 23 24 23 19 10 11 17 15 15 13 15 13 20 14 14 12 17 17 16 16 17 17 19 18 19 23 19 16
18 18 20 19 20 21 22 23 23 22 17 8 7 6 8 9 13 20 17 19 21 22 11 13 17 16 19 11 14 9 13 10 5 6 8 2 12 14 14 17 14 19 21 17 17 12 14
18 18 18 20 21 20 21 23 25 27 25 5 6 8 17 5 13 17 20 21 16 18 15 16 17 17 14 13 14 16 14 12 9 3 5 7 15 18 19 17 12 14 19 23 17 17 18
18 18 18 18 19 21 21 21 24 29 37 6 8 8 13 14 19 14 10 18 20 16 17 15 17 15 18 17 18 16 17 14 13 12 10 12 14 16 20 19 20 21 12 16 10 8 11
18 18 18 18 19 20 20 21 21 21 24 7 10 12 9 10 15 12 11 16 17 16 19 13 12 15 17 16 9 16 19 18 14 14 13 14 12 12 15 19 18 15 12 11 16 10 8
18 18 18 18 19 19 20 20 19 17 13 8 11 9 9 12 13 14 14 13 14 15 11 18 11 12 11 12 13 13 15 16 16 14 11 15 14 11 13 14 19 11 18 14 4 3 9
18 18 19 19 19 19 19 18 19 17 13 10 11 9 8 10 15 17 12 12 12 13 13 13 5 3 10 4 9 12 13 17 19 17 17 11 14 12 13 13 13 13 14 3 9 8 6
17 17 19 19 19 19 19 18 17 17 15 10 11 5 8 9 1 19 16 10 12 11 12 14 13 15 9 9 11 15 15 17 20 22 21 19 15 12 11 13 18 14 7 7 4 5 11
17 18 19 19 19 19 19 18 17 17 15 10 8 13 7 11 17 14 10 9 9 12 12 11 15 15 11 10 12 14 15 19 18 21 18 17 14 14 11 14 16 13 9 5 7 2 7
17 18 18 18 18 19 19 18 16 16 15 10 10 10 5 8 19 23 18 15 13 9 9 14 8 3 8 12 11 13 13 13 17 16 17 17 13 11 13 19 16 12 9 5 7 5 6
16 17 18 17 18 18 19 18 16 15 13 10 8 11 10 9 16 24 23 23 22 19 11 9 13 8 6 6 5 8 11 10 3 6 9 4 3 1 5 4 5 8 7 9 5 7 4
Wind_Direction
13 11 9 6 4 3 1 358 355 353 351 347 346 342 338 336 334 331 324 320 316 313 310 309 310 321 305 247 254 136 159 168 204 222 243 239 232 236 262 314 178 260 169 223 118 241 120
10 9 7 4 3 1 359 355 353 351 347 345 343 340 338 336 333 329 322 316 312 308 305 304 305 312 253 266 263 150 194 180 227 216 243 252 269 291 126 292 96 244 271 174 155 124 181
9 7 5 2 2 360 357 353 350 349 347 345 342 339 338 335 331 327 320 314 310 305 301 296 295 275 266 253 296 158 216 205 213 232 248 254 323 305 305 102 259 288 327 2 150 174 163
6 4 3 360 359 356 354 351 349 347 345 342 339 336 334 331 328 323 316 309 306 300 292 288 255 244 263 287 237 224 216 218 223 232 269 345 295 273 288 229 215 128 25 339 282 93 11
2 1 359 356 355 352 350 349 347 344 342 339 337 334 331 327 324 320 313 305 298 291 276 260 213 232 260 168 227 237 220 224 218 233 231 286 266 259 266 243 199 72 135 266 288 48 301
2 359 357 353 352 349 347 347 344 342 339 336 335 333 328 323 321 321 316 292 273 301 218 211 260 266 242 236 216 219 208 228 207 220 235 233 247 241 227 250 79 337 289 250 232 174 147
360 357 353 351 349 349 345 343 342 338 337 335 334 329 325 319 318 323 331 303 217 189 230 228 201 215 276 214 204 198 199 221 205 222 234 235 239 237 60 62 123 79 280 264 239 192 143
2 359 353 351 346 342 343 341 338 336 333 333 330 327 323 317 314 315 288 258 332 334 295 227 254 251 264 183 192 214 193 212 208 224 223 262 225 49 10 75 149 176 211 243 228 185 235
357 356 356 350 346 345 341 338 336 334 332 330 329 327 324 319 314 280 234 260 310 311 280 267 237 226 237 219 224 203 195 212 212 230 224 228 195 48 356 249 205 245 244 329 99 207 242
350 345 343 353 349 345 342 338 335 332 330 328 326 326 326 327 292 336 263 252 237 286 277 255 214 223 215 214 231 240 194 214 231 227 232 251 164 107 299 275 257 215 357 79 253 249 205
348 344 343 333 347 344 342 339 336 333 329 326 322 320 320 319 308 273 6 307 331 260 275 151 183 190 200 210 215 223 189 218 229 229 172 256 171 201 204 260 253 10 224 230 228 257 148
346 343 342 344 343 344 341 338 335 332 328 324 317 314 325 288 204 254 296 301 261 233 239 161 126 196 193 204 220 207 217 208 234 245 222 267 146 230 221 251 270 301 269 279 263 253 261
346 343 344 341 338 337 342 339 335 331 327 320 311 306 293 300 236 342 280 245 225 244 231 153 177 192 207 196 211 228 191 202 225 227 243 222 183 233 266 226 247 240 270 254 220 223 235
347 347 342 340 338 335 334 340 337 332 326 318 311 304 243 216 239 247 270 223 238 245 247 300 181 182 201 211 204 222 192 210 213 228 230 236 205 224 204 243 258 222 247 266 259 359 6
348 348 347 343 338 334 332 337 337 330 323 322 310 261 231 226 223 254 231 222 220 257 314 335 185 251 190 213 208 214 223 204 210 223 232 231 211 223 235 209 235 243 257 256 272 69 37
344 344 343 342 339 337 335 332 333 330 326 328 307 282 248 200 167 207 228 238 235 250 282 310 288 229 244 199 213 199 213 217 222 211 230 252 219 336 345 320 201 234 260 284 293 192 171
342 342 341 339 340 339 339 337 333 331 330 326 253 244 118 132 167 205 223 235 240 262 287 258 271 271 287 246 207 220 211 216 219 221 213 236 205 319 156 257 201 211 231 264 282 286 300
346 343 342 341 342 339 338 339 340 339 335 333 287 257 144 164 199 220 227 238 260 263 262 209 268 287 304 301 283 225 227 220 211 220 220 228 249 207 176 251 192 221 232 242 254 272 273
343 341 342 341 341 340 339 340 341 345 357 315 276 280 153 196 228 227 228 245 253 252 248 241 237 262 280 286 299 294 255 233 241 217 242 225 217 243 241 249 190 205 206 227 244 257 244
345 346 348 345 344 342 341 340 339 339 342 310 273 252 166 203 245 266 255 240 233 243 273 244 255 252 249 246 267 278 275 282 9 120 24 1 274 265 241 237 205 236 207 214 246 264 277
341 344 344 345 345 341 342 342 340 337 335 277 243 270 11 231 208 234 253 267 264 227 214 236 255 262 251 254 256 251 251 265 153 78 283 240 252 276 280 265 229 271 257 205 218 245 255
342 343 343 345 344 343 343 344 345 343 333 227 330 341 341 300 296 299 255 246 268 277 228 204 239 242 234 249 257 258 256 232 265 169 218 244 253 262 278 281 275 279 226 275 277 270 290
337 339 341 342 342 342 344 344 348 355 343 323 357 338 300 294 291 262 260 270 241 261 278 267 227 226 235 257 305 263 276 295 273 207 187 226 236 227 245 252 266 270 272 229 262 273 283
333 335 339 339 340 343 344 344 345 353 358 321 300 316 295 290 280 275 270 269 264 259 282 264 234 256 294 347 317 288 282 287 282 288 221 193 226 240 241 239 240 256 272 280 160 273 290
334 334 336 336 337 339 342 342 344 343 346 323 295 306 308 299 303 296 317 305 315 301 303 276 308 267 282 291 270 254 261 260 261 268 277 270 199 217 249 254 268 265 261 232 211 242 311
334 334 336 338 337 337 337 341 341 338 342 322 300 342 302 290 345 344 326 310 304 284 253 265 267 261 281 267 252 235 237 238 226 239 250 255 262 275 261 246 243 250 70 47 42 260 24
331 332 335 337 336 336 335 336 338 337 338 325 282 303 302 288 273 315 295 328 321 316 291 280 222 217 218 249 250 245 233 241 238 228 216 230 238 244 242 262 260 284 58 74 249 57 21
328 331 331 330 332 335 333 332 334 335 339 336 304 284 317 298 293 276 283 283 279 255 269 360 288 175 273 227 250 254 253 241 232 245 226 215 220 215 236 252 252 26 356 1 49 61 46
322 325 327 325 328 330 328 327 330 331 329 337 284 337 319 277 281 303 288 277 272 283 295 294 315 310 352 304 259 285 269 266 266 266 157 190 65 288 322 13 17 15 90 30 14 352 5